Vertical_Velocity
-3 -2 -2 -4 -3 -0 4 3 3 1 1 2 -1 -2 0 5 0 -7 -31 -2 -4 4 3 -1 9 3 4 6 20 4 9 -0 -16 4 -16 -1 5 -1 4 -0 2 -2 -1 4 2
-2 -3 -2 -3 -3 -1 -2 -1 0 -0 4 3 3 3 -1 4 1 -24 6 -2 6 14 4 12 -8 10 9 -3 6 12 10 -19 -8 -5 -5 -2 -1 -4 -3 -1 1 2 -5 -3 7
-1 1 -4 -4 -2 -5 -0 -1 0 0 -3 -0 2 4 6 3 -3 -12 3 16 -2 4 6 18 16 16 12 10 -8 -9 -5 -9 -9 -4 -1 -3 6 -2 -2 4 -8 -15 -4 -0 -1
2 -1 -1 1 1 3 -3 2 -1 1 3 2 8 5 4 1 -8 2 16 21 10 6 -7 -15 -2 16 6 4 -8 15 -2 0 -9 -3 5 -0 3 2 -2 -15 -13 -3 -2 -3 -2
-5 0 -0 -1 2 -3 -2 -2 3 -4 -0 0 -2 0 1 -0 -19 -7 3 3 8 8 -1 -0 3 4 4 2 12 15 -8 3 -2 5 -2 8 -2 -8 -4 3 10 9 3 -3 2
1 -2 -1 -2 -2 -3 -4 -1 -4 2 0 3 0 -3 3 3 -1 3 -7 -18 -5 -1 -5 4 -4 -1 3 -1 13 -3 -1 -9 -1 -2 -3 4 -3 7 -14 4 11 3 -2 1 -2
1 -1 0 1 -2 2 -3 -4 3 -4 2 -2 2 -1 6 -34 -2 -4 8 -7 -3 1 -4 -7 -1 16 4 -1 -12 -3 15 5 -2 -5 -4 2 17 -2 -15 15 2 5 3 4 -3
-4 -5 -3 -2 0 -1 -3 -4 -1 -2 0 -0 1 10 -10 -4 13 9 4 1 -2 5 2 3 -2 -3 7 -5 -4 12 20 12 -24 5 -19 5 -12 -6 -5 10 1 6 5 2 -4
-4 -2 -1 1 -0 -1 0 -12 -5 1 -5 3 3 16 -1 10 -5 -15 20 -4 -5 -0 1 4 10 -6 8 4 5 5 -3 5 -1 -3 -0 15 -6 -6 -0 3 2 1 -0 -3 5
-4 0 1 -0 1 -2 -1 -4 -16 -8 -0 -2 -3 -12 -15 -11 -12 5 9 -3 -1 3 -1 6 11 2 8 8 -8 -7 6 2 -3 -10 9 4 -3 2 -2 2 -5 -2 2 2 5
-2 1 -1 -1 1 -2 -11 -19 -36 -21 -3 -1 -2 -4 -2 6 9 -18 17 -2 0 6 4 -6 13 -3 -6 -4 -6 2 5 -1 -5 -7 6 -8 -1 -2 -2 8 4 3 1 2 -1
6 -5 -2 -5 3 -2 -0 -6 1 3 -16 2 -4 3 15 21 -5 -37 34 6 6 0 -1 3 -1 -10 -0 2 3 3 2 -6 -2 0 3 1 -5 -5 0 -6 -8 -3 3 0 4
-0 2 -6 -5 -4 1 -3 3 4 4 0 -14 11 13 3 -0 1 -7 -1 0 4 2 -0 7 -14 2 5 3 6 -1 4 -1 -13 1 5 6 -0 1 -1 2 6 3 3 1 -11
-6 1 2 -16 -6 -7 -3 -3 2 0 -4 -7 -3 -5 -33 5 -1 18 -1 10 -1 2 2 1 -4 2 3 0 4 5 -0 0 2 6 -2 -6 -4 2 -2 -0 2 1 1 -3 1
-0 -6 3 -0 0 0 7 4 4 1 -10 -23 -4 1 -1 11 13 -22 17 -7 0 -1 3 -13 -3 -2 2 -18 1 -2 -1 0 -2 1 4 12 4 -1 5 5 -1 0 0 -0 3
2 -0 -4 -8 9 6 6 3 3 -12 -12 -12 -1 -6 -8 -11 -13 -9 -0 -13 8 4 -3 -1 -3 3 -0 -1 -3 -2 2 5 -2 1 11 -5 -6 -4 -2 -16 1 1 2 -5 -0
0 2 -6 1 -2 -2 4 -2 -13 -9 -11 -10 -6 -1 2 -4 -11 -3 -1 -4 -1 -4 -7 -7 -1 -1 -2 2 8 8 4 5 11 8 -4 -1 4 -9 -3 -1 -5 -3 -1 -1 -1
5 2 -1 7 4 -3 -7 -13 -11 0 -1 -7 2 -4 3 3 -7 -5 -3 -3 -3 0 1 2 -16 -1 -4 3 2 -3 -3 -0 -1 -1 2 2 -2 -11 -4 2 3 3 13 9 13
3 -4 -6 -2 -5 -7 -11 -7 1 2 4 3 -13 -0 -4 -7 6 -1 1 2 1 4 4 -0 -7 -6 3 0 4 1 4 3 0 -1 -4 -2 2 -6 -2 -1 -2 1 -2 1 1
-2 -2 3 1 -2 -11 -14 0 -1 2 1 -1 2 2 1 -2 -1 -1 -0 -2 -2 3 2 -4 -1 -1 -6 0 0 1 3 3 4 2 2 2 1 5 -3 2 1 -2 1 2 2
-5 -4 1 -5 -7 -11 -4 -3 -0 1 1 3 0 -0 -0 4 5 -1 0 -9 -2 -7 1 1 -1 -17 -1 -2 2 -4 -0 -1 1 1 -3 -1 9 6 5 5 3 3 4 3 2
-4 -5 -1 -5 -16 0 -0 0 1 -2 -2 -2 2 1 2 0 0 1 2 7 1 6 2 2 2 -0 -0 3 1 -0 3 2 2 -1 0 -3 8 2 3 3 1 3 3 3 5
3 -5 -1 -1 -3 -1 -4 -2 2 -3 -1 -1 0 2 -1 1 0 2 -0 -4 -0 1 8 1 -4 -2 -11 -9 -7 -2 -1 1 2 1 -1 -4 6 1 -2 -3 0 1 1 0 1
1 -6 -7 -1 1 1 0 -2 -2 -2 -1 0 -1 1 -1 -1 -1 -3 -4 -5 -2 1 -0 -3 0 4 0 4 2 -3 -3 -2 3 -1 2 5 3 -6 -3 0 -3 -2 0 -1 0
-6 -1 6 -5 -9 -0 1 0 -1 -3 -1 1 -5 3 5 -1 -1 -1 -3 -10 -5 1 -2 -3 2 -6 2 0 -4 3 2 -0 -4 5 -0 7 -1 4 4 4 5 6 -0 -2 -2
-4 -1 -1 -2 -0 0 -3 -2 3 -8 2 -5 2 -2 1 0 -0 -1 9 -1 1 -7 -1 -2 -1 0 1 2 -2 -3 -0 -0 -0 -1 -3 -1 2 7 -0 -1 -5 1 -0 -2 -3
1 3 5 -5 -1 -1 0 -0 -2 1 -7 1 8 4 -1 -1 8 -0 5 0 -3 -0 -0 -2 0 -0 -1 0 -1 -9 5 2 1 -0 3 -1 4 -0 -7 -2 1 0 1 1 0
Height
1494 1489 1485 1481 1477 1471 1467 1463 1458 1453 1449 1444 1442 1438 1437 1434 1431 1430 1426 1424 1424 1420 1422 1424 1424 1424 1426 1426 1426 1426 1422 1412 1404 1414 1418 1424 1429 1430 1436 1440 1445 1449 1448 1451 1451
1493 1488 1484 1478 1473 1467 1462 1458 1456 1452 1447 1441 1438 1433 1431 1429 1425 1420 1410 1417 1417 1410 1416 1418 1415 1420 1419 1415 1417 1405 1406 1385 1403 1409 1412 1420 1423 1427 1432 1439 1445 1447 1447 1451 1450
1491 1487 1481 1474 1468 1461 1455 1450 1445 1441 1439 1438 1436 1431 1427 1424 1419 1409 1408 1408 1414 1411 1407 1412 1414 1414 1411 1408 1404 1398 1384 1387 1398 1406 1411 1415 1419 1421 1425 1436 1439 1441 1442 1445 1450
1489 1483 1476 1470 1463 1458 1451 1447 1441 1437 1431 1431 1429 1428 1424 1421 1422 1408 1409 1410 1408 1409 1408 1409 1407 1405 1399 1394 1397 1397 1387 1387 1395 1401 1407 1406 1414 1415 1418 1421 1426 1430 1433 1438 1444
1485 1478 1472 1466 1460 1454 1448 1442 1436 1430 1426 1423 1422 1423 1421 1418 1410 1407 1406 1407 1406 1403 1403 1407 1406 1402 1390 1389 1391 1386 1385 1386 1393 1396 1395 1406 1402 1406 1411 1417 1419 1423 1429 1433 1438
1482 1476 1469 1461 1455 1448 1441 1435 1430 1425 1420 1418 1417 1417 1419 1416 1407 1406 1404 1403 1401 1399 1397 1398 1399 1399 1395 1382 1383 1377 1386 1384 1384 1388 1393 1394 1397 1406 1408 1409 1414 1415 1421 1427 1431
1478 1472 1466 1459 1451 1445 1439 1432 1425 1420 1417 1414 1413 1414 1415 1410 1404 1401 1400 1398 1395 1394 1391 1390 1391 1395 1390 1384 1381 1379 1382 1376 1373 1383 1382 1393 1397 1393 1404 1408 1410 1409 1415 1421 1425
1477 1470 1462 1454 1449 1443 1435 1429 1423 1417 1415 1413 1412 1412 1410 1404 1403 1400 1396 1391 1391 1389 1387 1385 1385 1387 1384 1385 1380 1375 1380 1373 1349 1378 1381 1381 1383 1385 1395 1404 1410 1409 1411 1415 1421
1474 1466 1458 1451 1446 1440 1436 1429 1421 1416 1413 1412 1412 1409 1407 1404 1400 1395 1391 1388 1384 1380 1377 1378 1378 1374 1381 1379 1378 1369 1354 1364 1362 1367 1374 1371 1369 1379 1388 1395 1409 1407 1407 1411 1417
1471 1463 1455 1450 1443 1438 1434 1429 1421 1415 1412 1409 1410 1409 1405 1401 1395 1387 1385 1381 1377 1372 1372 1372 1366 1362 1369 1370 1355 1348 1356 1349 1356 1354 1368 1371 1368 1371 1379 1388 1398 1401 1402 1406 1409
1469 1460 1453 1449 1441 1437 1431 1424 1424 1416 1415 1414 1411 1407 1400 1398 1394 1388 1381 1377 1372 1369 1367 1363 1354 1347 1350 1356 1353 1355 1347 1349 1345 1351 1354 1363 1378 1370 1370 1377 1386 1390 1393 1399 1406
1467 1458 1452 1447 1442 1438 1434 1433 1434 1432 1421 1412 1407 1404 1399 1397 1388 1383 1378 1375 1369 1365 1360 1357 1346 1341 1344 1347 1351 1350 1347 1341 1345 1345 1356 1360 1370 1366 1363 1364 1371 1380 1386 1392 1400
1465 1456 1451 1445 1441 1437 1434 1434 1430 1426 1425 1412 1407 1403 1400 1394 1386 1380 1375 1368 1364 1358 1354 1356 1339 1335 1336 1338 1345 1346 1343 1334 1338 1345 1348 1352 1371 1369 1358 1360 1365 1371 1376 1383 1387
1463 1454 1450 1443 1439 1436 1434 1429 1426 1424 1425 1414 1409 1405 1400 1392 1385 1378 1373 1368 1360 1357 1348 1347 1334 1335 1331 1328 1342 1341 1337 1333 1330 1341 1347 1348 1359 1359 1355 1357 1359 1367 1372 1373 1378
1461 1454 1449 1442 1440 1436 1436 1429 1425 1423 1453 1415 1411 1407 1401 1395 1386 1375 1372 1365 1363 1357 1354 1343 1336 1327 1322 1322 1331 1329 1334 1328 1320 1331 1342 1351 1361 1355 1358 1352 1354 1355 1359 1365 1373
1458 1452 1448 1443 1440 1437 1431 1426 1426 1429 1461 1420 1415 1408 1399 1391 1384 1377 1371 1368 1360 1353 1346 1340 1329 1329 1325 1321 1321 1327 1339 1326 1325 1331 1343 1343 1348 1357 1345 1337 1345 1349 1355 1361 1368
1456 1451 1448 1443 1439 1434 1430 1426 1438 1456 1429 1425 1418 1410 1402 1395 1385 1380 1375 1375 1371 1365 1350 1341 1333 1330 1328 1320 1324 1328 1329 1311 1321 1331 1325 1337 1344 1344 1336 1336 1337 1344 1350 1356 1362
1457 1453 1449 1444 1440 1433 1429 1433 1462 1441 1438 1427 1419 1410 1407 1399 1390 1384 1381 1385 1373 1371 1370 1362 1350 1334 1336 1331 1320 1318 1319 1311 1306 1317 1334 1330 1338 1340 1335 1345 1345 1345 1352 1357 1364
1456 1453 1448 1444 1439 1434 1432 1458 1455 1447 1439 1429 1418 1415 1409 1403 1403 1391 1386 1384 1380 1374 1373 1372 1349 1335 1333 1327 1324 1319 1313 1317 1326 1316 1328 1342 1336 1335 1349 1357 1357 1359 1361 1367 1365
1455 1452 1450 1445 1440 1436 1440 1451 1451 1444 1438 1432 1434 1427 1425 1411 1407 1401 1391 1386 1382 1376 1373 1370 1361 1336 1328 1323 1322 1317 1320 1320 1324 1316 1320 1333 1347 1373 1373 1374 1374 1371 1372 1372 1372
1458 1453 1453 1447 1443 1441 1458 1459 1449 1444 1439 1437 1438 1434 1428 1421 1412 1405 1396 1387 1386 1375 1373 1370 1373 1346 1331 1339 1337 1327 1323 1324 1321 1314 1308 1334 1369 1390 1390 1388 1387 1385 1383 1382 1380
1462 1459 1454 1448 1447 1451 1458 1453 1446 1442 1441 1437 1435 1433 1430 1422 1416 1409 1402 1394 1389 1383 1373 1370 1368 1364 1349 1350 1346 1349 1362 1347 1322 1320 1318 1337 1389 1400 1397 1396 1394 1393 1389 1387 1383
1466 1462 1455 1450 1460 1458 1454 1451 1447 1443 1437 1437 1435 1433 1430 1427 1424 1409 1405 1394 1391 1388 1382 1378 1367 1360 1349 1348 1350 1359 1375 1370 1353 1335 1328 1341 1387 1404 1403 1401 1401 1398 1395 1391 1387
1472 1469 1459 1457 1461 1461 1459 1451 1447 1443 1441 1438 1435 1433 1430 1427 1420 1417 1411 1398 1393 1390 1383 1379 1376 1370 1383 1392 1392 1389 1382 1373 1350 1328 1349 1376 1397 1410 1407 1407 1404 1402 1397 1394 1388
1478 1478 1475 1468 1460 1461 1458 1452 1447 1447 1442 1438 1435 1434 1433 1432 1419 1414 1405 1403 1393 1391 1388 1388 1384 1384 1391 1393 1392 1400 1397 1392 1381 1384 1369 1402 1415 1418 1414 1413 1410 1404 1397 1390 1387
1484 1482 1476 1469 1464 1462 1458 1458 1453 1447 1446 1441 1439 1429 1428 1435 1424 1416 1410 1405 1403 1395 1397 1393 1390 1386 1390 1392 1388 1399 1405 1403 1407 1407 1402 1401 1408 1419 1418 1415 1412 1407 1402 1401 1397
1483 1481 1477 1467 1464 1464 1461 1457 1451 1447 1441 1438 1435 1430 1423 1419 1413 1406 1399 1400 1401 1402 1402 1403 1397 1392 1378 1387 1384 1395 1421 1415 1425 1429 1423 1425 1430 1426 1417 1412 1413 1412 1410 1408 1405